Flag for Botswana Weather past 2 weeks in Molepolole, Botswana

Now
84 °F

Passing clouds.


Feels Like: 81 °F
Forecast: 43 / 78 °F
Wind: 5 mph from North

Location: Seretse Khama International Airport

Current Time: May 27, 2015 at 4:33:47 PM

Latest Report: May 27, 2015 at 4:00 PM


Visibility: N/A

Pressure: 30.15 "Hg

Humidity: 10%

Dew point: 21 °F

Location of MolepololeLocation

Historic Weather in Molepolole — Graph

°F

Molepolole temperature yesterday

Maximum temperature yesterday: 82 °F (at 2:00 PM)
Minimum temperature yesterday: 45 °F (at 6:00 AM)
Average temperature yesterday: 64 °F

Past Weeks' High & Low Weather Summary

 TemperatureHumidityPressure
High90 °F (May 15, 4:00 PM)82% (May 23, 5:00 AM)30.42 "Hg (May 23, 5:00 AM)
Low43 °F (May 25, 6:00 AM)10% (May 16, 3:00 PM)30.04 "Hg (May 13, 5:00 PM)
Average65 °F40%30.22 "Hg
* Reported May 12 3:00 PM — May 27 3:00 PM, Molepolole, Weather by CustomWeather, © 2015

Note: Actual official high and low records may vary slightly from our data, if they occured in-between our weather recording intervals... More about our weather records

Advertising

Molepolole weather history for previous 24 hours

 ConditionsComfort  
Time TempWeatherWind HumidityBarometerVisibility
3:00 PM
Wed, May 27
82 °FSunny.2 mph11%30.15 "Hg10 mi
2:00 PM82 °FSunny.3 mph11%30.15 "Hg10 mi
1:00 PM84 °FSunny.2 mph12%30.18 "Hg10 mi
12:00 PM81 °FPassing clouds.5 mph14%30.21 "HgN/A
11:00 AM77 °FSunny.2 mph18%30.24 "Hg10 mi
10:00 AM70 °FSunny.1 mph23%30.24 "Hg10 mi
9:00 AM63 °FSunny.1 mph30%30.24 "Hg10 mi
8:00 AM54 °FSunny.1 mph41%30.21 "Hg10 mi
7:00 AM46 °FSunny.5 mph53%30.21 "Hg10 mi
6:00 AM46 °FSunny.6 mph50%30.18 "Hg10 mi
5:00 AM46 °FClear.6 mph53%30.15 "Hg10 mi
2:00 AM48 °FClear.3 mph50%30.18 "Hg10 mi
12:00 AM57 °FClear.6 mph33%30.18 "Hg10 mi
11:00 PM
Tue, May 26
57 °FClear.3 mph33%30.18 "Hg10 mi
10:00 PM57 °FClear.1 mph33%30.18 "Hg10 mi
9:00 PM64 °FClear.3 mph24%30.18 "Hg10 mi
8:00 PM64 °FClear.3 mph26%30.15 "Hg10 mi
7:00 PM70 °FClear.3 mph21%30.15 "Hg10 mi
6:00 PM75 °FClear.2 mph14%30.12 "Hg10 mi
5:00 PM81 °FClear.2 mph13%30.12 "Hg10 mi
4:00 PM82 °FPassing clouds.5 mph12%30.12 "HgN/A
Weather by CustomWeather, © 2015

See weather overviewHow to use our weather pages